Temp
61 61 60 60 59 60 60 60 58 59 60 61 60 60 60 60 60 60 60 60 60 60 60 61 61 63 64 63 62 61 61 62 62 61 60 60 61 62 62 63 63 63 64 65 65 65 64 65 65 63 61 59 59 59 60 61 62 62 62 62 62 61 60 60 61 60 59 59 61
61 60 59 57 57 59 60 59 58 59 59 61 61 60 60 60 60 60 60 59 60 60 61 62 63 64 64 63 62 62 62 62 62 62 61 61 61 62 62 62 63 63 63 65 65 65 64 64 64 63 62 59 59 59 60 62 63 62 61 61 62 61 61 60 61 60 59 59 60
60 60 60 59 59 60 60 60 60 59 60 60 60 60 60 61 61 60 60 60 61 62 63 64 64 64 64 64 63 62 62 63 63 63 62 61 61 61 62 62 62 62 62 63 65 65 65 64 64 63 62 60 59 59 60 62 62 61 61 61 62 62 62 62 61 60 60 60 59
60 60 60 60 60 60 60 60 60 60 60 60 60 60 60 61 61 61 61 62 62 62 63 64 65 65 64 64 63 62 62 61 62 63 62 61 61 61 61 62 62 61 61 61 63 64 65 64 64 64 63 62 61 61 62 62 61 61 62 62 62 62 62 62 61 61 60 60 59
60 60 60 60 60 60 60 60 60 60 60 60 60 60 60 60 62 63 63 62 62 61 62 64 65 65 64 63 63 62 61 60 59 60 61 61 61 61 61 62 62 62 61 61 61 63 64 63 64 64 64 63 64 64 64 63 61 61 61 61 61 62 62 62 62 61 60 60 59
60 60 60 60 60 61 60 60 60 60 60 60 60 60 60 60 61 63 64 63 62 62 61 61 63 63 62 62 62 61 61 60 60 60 61 60 60 60 61 61 62 62 62 61 61 62 62 62 63 63 63 63 64 63 62 60 59 60 61 60 60 61 61 61 61 60 59 59 59
60 60 60 60 60 60 60 60 60 60 60 60 60 59 59 60 61 63 64 64 63 61 60 59 60 61 61 61 61 61 60 60 60 60 60 59 60 60 60 60 61 62 62 62 61 61 61 62 63 63 62 60 61 61 60 59 60 60 61 61 61 60 60 61 60 59 58 58 58
60 60 60 60 60 60 60 60 60 60 60 60 60 60 60 60 61 63 64 64 62 61 60 60 61 61 61 61 60 60 59 59 59 59 59 59 59 60 60 60 60 61 62 64 62 61 61 63 63 63 63 62 62 61 61 60 60 61 61 62 60 60 60 61 61 60 58 58 57
60 60 60 60 60 60 60 60 60 60 60 60 60 60 60 60 61 62 63 62 62 61 61 61 61 61 61 61 60 60 60 59 59 59 59 59 59 60 60 60 60 61 62 64 63 62 62 63 63 64 63 63 63 62 62 60 61 61 61 61 61 60 59 61 60 59 58 57 56
59 59 60 60 60 60 60 60 60 60 60 60 60 59 58 56 59 61 62 62 61 61 61 61 61 61 60 60 60 60 60 60 60 60 60 59 60 60 60 60 60 60 61 62 63 63 63 63 64 64 65 65 64 63 62 60 60 61 61 61 61 60 60 60 59 58 58 58 56
59 59 59 60 60 60 60 60 60 60 60 60 59 59 58 56 58 60 61 62 61 61 60 61 60 60 60 60 60 60 60 60 60 60 60 60 60 60 60 60 60 60 60 61 63 64 64 64 64 64 65 65 64 63 62 61 60 60 61 62 62 61 60 59 59 59 59 58 56
60 60 60 60 60 60 60 60 59 59 59 59 59 59 59 59 59 60 60 61 60 60 60 60 60 60 60 60 60 60 60 60 61 61 61 61 60 60 60 60 60 60 60 60 62 63 64 64 64 64 64 64 65 64 63 61 61 60 61 61 61 60 60 60 59 60 60 60 57
60 60 60 60 60 60 60 59 59 59 59 59 59 59 58 59 59 59 59 60 59 59 59 60 60 60 60 60 60 60 60 60 61 61 61 61 61 60 60 60 60 60 60 60 61 62 64 65 65 64 64 64 65 65 64 62 61 61 61 60 60 60 60 60 60 60 60 59 58
60 60 60 60 59 59 59 59 59 59 59 59 59 59 58 59 58 58 59 59 59 59 59 59 59 59 59 59 60 60 60 60 61 61 61 61 61 60 60 60 60 60 60 60 60 61 63 65 65 65 65 64 65 64 64 63 62 62 61 61 61 61 61 61 60 60 59 58 58
60 60 60 60 59 59 59 59 59 59 59 58 58 58 58 58 58 58 58 59 59 59 59 59 58 58 58 59 59 60 60 61 61 60 60 61 61 61 61 61 61 61 61 61 60 61 63 65 65 65 65 65 65 64 64 63 63 62 62 62 61 61 61 61 61 60 59 57 57
60 60 60 60 59 59 59 59 59 59 58 58 58 58 58 58 58 58 58 59 59 59 59 59 58 59 59 58 59 59 60 60 60 60 60 61 61 62 62 62 63 63 63 62 62 62 63 65 66 66 65 65 65 65 64 64 63 63 62 62 62 62 62 61 61 60 59 58 58
59 59 59 59 59 59 59 59 59 59 58 58 58 58 58 58 58 58 57 58 58 59 58 59 59 58 58 57 58 59 59 60 60 61 61 62 62 63 63 64 65 65 65 65 64 64 64 65 66 66 65 65 65 65 65 64 63 63 62 62 62 62 62 61 61 61 60 59 59
58 59 59 59 59 59 59 59 59 59 58 58 58 58 58 58 58 58 58 58 58 58 58 58 58 58 58 58 58 58 58 59 60 61 62 64 65 65 65 65 66 66 66 66 66 66 66 66 65 65 65 65 65 65 65 65 64 63 63 62 62 62 62 62 62 62 61 60 60
58 58 58 59 59 59 59 59 59 59 59 58 58 58 58 58 58 58 58 58 58 58 58 58 58 58 58 58 58 57 57 59 60 62 64 66 66 66 66 66 66 66 67 67 67 67 66 66 66 65 65 65 65 65 65 65 64 64 63 63 62 62 62 62 62 62 61 61 60
58 58 58 58 59 59 59 59 59 59 59 59 58 58 58 58 59 59 59 58 58 58 59 58 58 58 58 58 58 58 58 59 61 64 65 67 67 67 67 67 66 66 66 67 67 67 67 66 66 65 65 64 64 64 64 64 64 64 63 63 63 62 62 62 62 61 61 60 59
58 58 58 58 58 59 59 59 59 59 59 59 59 58 58 58 59 59 59 58 58 59 59 58 58 58 58 58 58 59 59 59 62 65 66 67 67 67 67 67 66 66 67 67 67 67 66 66 66 65 65 64 64 64 64 64 64 63 63 63 63 63 62 62 61 61 60 60 59
59 59 58 58 58 58 59 59 59 59 59 59 59 58 58 58 59 59 59 59 58 58 58 58 58 59 59 59 59 59 59 59 62 65 66 66 66 66 67 67 67 66 66 66 67 67 66 66 66 65 65 64 64 63 63 63 63 63 63 62 62 62 62 62 61 61 60 60 60
59 59 59 58 58 58 57 58 59 59 59 59 59 59 58 58 59 59 59 59 58 58 58 58 59 59 60 60 60 60 60 60 62 64 65 66 66 66 67 67 67 66 66 67 67 67 66 66 66 65 65 65 64 64 63 63 63 63 63 62 62 62 62 61 61 61 61 60 60
59 59 59 58 58 58 58 58 58 58 58 58 58 58 58 58 59 59 59 59 59 59 59 59 59 60 61 62 61 61 61 60 61 63 64 66 66 66 66 67 67 67 67 66 64 63 63 65 65 65 65 65 65 64 64 63 63 63 63 62 62 61 61 61 60 60 60 60 60
59 59 58 59 58 58 58 58 58 58 58 58 58 58 58 58 58 58 58 59 59 59 59 60 60 60 61 62 62 63 63 62 62 63 64 65 66 66 66 67 67 66 65 63 57 55 55 57 61 64 66 66 66 65 63 62 62 62 62 61 60 60 60 59 59 58 58 58 58
59 59 59 59 58 58 58 58 58 58 58 58 58 58 58 58 58 58 58 58 59 59 60 60 60 59 60 62 63 64 65 65 65 65 66 66 66 66 66 67 67 67 64 60 53 50 50 51 54 58 62 67 66 65 63 62 61 60 60 59 58 57 57 57 57 56 56 55 55
59 59 59 59 58 58 58 58 57 57 58 58 58 58 58 58 58 58 58 58 59 59 60 60 60 59 59 62 63 65 66 66 67 67 67 67 67 66 66 67 67 66 63 56 51 48 47 48 49 51 54 61 64 64 63 62 60 58 57 56 55 55 54 54 53 53 52 51 50
59 59 59 58 58 58 58 58 57 57 58 58 58 58 58 58 58 58 58 58 59 59 60 61 61 61 62 63 64 65 66 67 67 67 67 68 67 67 67 67 67 64 59 52 48 46 46 46 47 47 48 50 57 58 58 58 56 55 54 53 52 50 50 50 50 49 48 46 46
59 59 58 58 58 58 58 58 58 58 58 58 58 58 59 59 59 59 59 59 59 60 60 62 63 64 65 65 66 66 66 67 67 67 67 67 67 67 67 67 66 61 53 45 45 45 45 45 45 45 45 46 50 54 57 57 56 54 52 49 46 45 44 45 44 43 42 41 42
59 59 58 58 58 58 58 58 58 58 58 58 58 59 60 60 60 61 61 61 61 62 62 64 64 65 65 65 66 66 66 66 67 67 67 67 67 67 67 65 66 61 53 42 43 44 44 42 42 43 43 43 46 50 55 56 56 52 47 43 41 40 40 40 39 39 39 39 39
59 59 59 58 58 58 58 58 59 59 59 59 59 59 60 61 62 62 63 63 63 62 62 63 63 64 64 64 64 65 65 66 66 67 67 67 65 66 66 66 67 58 46 38 40 41 42 41 41 41 41 42 44 49 53 54 51 47 43 40 39 39 39 38 38 38 38 38 38
59 59 58 58 58 59 59 59 59 59 59 59 59 60 61 62 63 63 63 64 63 62 61 61 62 62 63 63 63 64 64 65 66 66 66 66 66 66 64 61 58 47 37 39 39 40 40 40 40 40 40 40 44 48 50 49 44 42 40 39 38 38 38 38 38 37 37 37 37
59 58 58 58 58 59 59 60 60 60 60 60 60 61 62 63 63 64 64 63 62 61 60 60 61 61 62 62 63 64 64 64 64 63 61 61 61 58 52 43 39 38 38 39 39 39 40 40 40 40 41 42 45 47 47 44 42 40 38 37 37 37 36 36 36 36 36 37 37
59 58 58 58 58 59 59 60 60 60 60 60 60 61 62 63 63 64 64 63 62 61 61 60 60 61 60 60 60 59 57 53 50 48 47 47 47 44 42 41 40 39 39 39 39 39 40 40 41 41 42 42 43 44 43 42 40 39 37 36 36 36 36 36 35 35 35 36 36
59 59 58 58 59 59 60 60 60 60 60 60 60 61 62 62 63 63 63 61 60 61 61 60 58 56 53 49 47 46 45 44 43 43 43 43 43 42 40 40 39 39 39 39 39 40 40 41 41 41 42 41 42 42 41 40 38 37 36 35 35 35 35 35 34 34 34 35 35
59 59 59 59 59 59 60 60 60 60 60 60 60 60 61 61 62 62 62 59 60 61 60 57 51 47 44 43 42 41 41 41 41 41 42 42 42 41 40 40 39 39 38 39 39 40 40 41 41 41 42 42 42 41 40 38 37 36 35 34 34 33 33 33 33 33 33 34 34
60 60 60 59 59 60 60 60 60 60 60 60 60 60 60 61 61 61 61 60 61 61 58 51 45 42 41 40 39 39 39 39 39 40 40 40 41 41 40 40 40 39 38 38 39 40 40 40 40 41 42 42 41 40 38 37 35 34 33 33 32 32 32 32 32 33 33 33 33
61 60 60 60 60 60 60 60 60 60 60 60 60 60 60 61 62 62 61 59 62 60 54 45 41 40 39 39 38 38 38 38 38 38 38 38 39 39 39 39 39 39 38 38 39 39 40 40 40 41 41 41 39 38 37 36 34 33 32 31 31 31 31 31 32 32 32 32 33
61 61 61 60 60 60 60 60 60 60 60 60 60 60 60 61 62 62 61 60 59 55 48 40 40 39 39 38 38 37 36 36 36 36 37 37 37 37 37 38 38 38 38 38 39 39 39 40 40 40 40 40 39 38 36 35 33 32 31 30 30 30 30 30 31 31 31 32 33
62 62 61 61 61 60 60 59 60 60 60 60 60 61 61 61 62 60 58 54 50 45 42 40 39 39 38 38 37 36 35 35 35 35 35 35 36 36 36 36 37 37 37 38 39 39 39 40 40 40 40 39 38 37 36 34 32 31 30 30 30 29 29 30 30 30 30 31 32
63 63 62 62 62 61 60 59 59 59 60 61 61 61 61 59 56 53 50 46 44 42 41 39 38 38 37 36 36 35 34 33 33 34 34 34 34 35 35 35 35 35 36 37 38 39 39 40 40 40 39 38 38 37 35 33 32 30 30 29 29 29 29 29 29 29 29 29 30
MSLP
1002.50 1002.66 1002.78 1002.94 1003.06 1003.18 1003.26 1003.34 1003.46 1003.50 1003.50 1003.58 1003.70 1003.78 1003.82 1003.90 1004.14 1004.38 1004.62 1004.90 1005.06 1005.30 1005.58 1005.90 1006.14 1006.42 1006.78 1007.22 1007.62 1007.98 1008.18 1008.34 1008.62 1008.90 1009.18 1009.50 1009.66 1010.02 1010.46 1010.98 1011.50 1012.02 1012.42 1012.74 1012.98 1013.10 1013.18 1013.34 1013.46 1013.70 1013.94 1014.10 1014.22 1014.38 1014.62 1014.90 1015.18 1015.30 1015.34 1015.34 1015.42 1015.50 1015.62 1015.78 1015.90 1016.06 1016.18 1016.26 1016.26
1002.38 1002.54 1002.70 1002.90 1003.06 1003.14 1003.18 1003.34 1003.46 1003.50 1003.54 1003.62 1003.70 1003.78 1003.86 1003.94 1004.10 1004.34 1004.62 1004.90 1005.06 1005.26 1005.54 1005.86 1006.14 1006.38 1006.74 1007.18 1007.54 1007.82 1008.06 1008.22 1008.46 1008.78 1009.18 1009.46 1009.62 1009.90 1010.34 1010.90 1011.42 1011.86 1012.18 1012.46 1012.66 1012.86 1013.02 1013.18 1013.34 1013.66 1014.02 1014.34 1014.58 1014.78 1015.02 1015.18 1015.34 1015.38 1015.34 1015.30 1015.34 1015.46 1015.62 1015.78 1015.82 1015.90 1016.06 1016.14 1016.18
1002.26 1002.46 1002.62 1002.78 1002.94 1003.06 1003.14 1003.26 1003.38 1003.50 1003.58 1003.66 1003.78 1003.86 1003.90 1004.02 1004.14 1004.34 1004.62 1004.90 1005.14 1005.34 1005.50 1005.78 1006.06 1006.30 1006.58 1007.02 1007.46 1007.74 1007.90 1008.06 1008.34 1008.66 1009.06 1009.38 1009.62 1009.90 1010.26 1010.78 1011.30 1011.78 1012.06 1012.26 1012.42 1012.58 1012.78 1013.02 1013.26 1013.54 1013.90 1014.38 1014.78 1015.06 1015.18 1015.14 1015.18 1015.18 1015.18 1015.18 1015.22 1015.34 1015.50 1015.66 1015.74 1015.90 1016.02 1016.10 1016.18
1002.18 1002.34 1002.50 1002.66 1002.82 1002.90 1002.98 1003.10 1003.26 1003.42 1003.58 1003.70 1003.86 1003.94 1003.98 1004.06 1004.18 1004.42 1004.66 1004.90 1005.18 1005.38 1005.50 1005.66 1005.90 1006.18 1006.54 1006.90 1007.34 1007.62 1007.78 1007.98 1008.22 1008.54 1008.90 1009.26 1009.54 1009.82 1010.14 1010.62 1011.18 1011.70 1012.06 1012.18 1012.26 1012.34 1012.58 1012.90 1013.10 1013.34 1013.70 1014.18 1014.62 1014.94 1014.98 1014.86 1014.86 1014.90 1014.90 1014.98 1015.10 1015.26 1015.42 1015.50 1015.62 1015.78 1015.94 1016.06 1016.10
1002.06 1002.26 1002.42 1002.58 1002.74 1002.82 1002.90 1003.06 1003.18 1003.34 1003.54 1003.70 1003.86 1003.98 1004.06 1004.10 1004.18 1004.42 1004.70 1004.94 1005.18 1005.42 1005.54 1005.62 1005.78 1006.14 1006.50 1006.86 1007.18 1007.54 1007.82 1008.06 1008.22 1008.54 1008.90 1009.26 1009.50 1009.78 1010.06 1010.46 1011.06 1011.62 1011.98 1012.18 1012.22 1012.30 1012.46 1012.78 1012.98 1013.18 1013.42 1013.78 1014.18 1014.46 1014.54 1014.50 1014.66 1014.78 1014.82 1014.90 1015.06 1015.18 1015.34 1015.42 1015.54 1015.66 1015.86 1015.98 1016.06
1001.98 1002.18 1002.34 1002.50 1002.66 1002.82 1002.90 1003.06 1003.18 1003.34 1003.50 1003.66 1003.82 1003.94 1004.06 1004.18 1004.26 1004.38 1004.62 1004.90 1005.18 1005.42 1005.62 1005.74 1005.86 1006.14 1006.46 1006.78 1007.18 1007.54 1007.86 1008.10 1008.34 1008.58 1008.90 1009.30 1009.58 1009.74 1009.94 1010.30 1010.78 1011.30 1011.74 1012.06 1012.22 1012.34 1012.46 1012.62 1012.86 1013.02 1013.18 1013.50 1013.78 1013.98 1014.18 1014.34 1014.54 1014.70 1014.78 1014.94 1015.06 1015.14 1015.26 1015.38 1015.50 1015.62 1015.78 1015.90 1016.02
1001.90 1002.06 1002.30 1002.46 1002.62 1002.78 1002.90 1003.06 1003.18 1003.34 1003.50 1003.66 1003.82 1003.90 1004.02 1004.18 1004.26 1004.34 1004.50 1004.78 1005.10 1005.46 1005.70 1005.86 1005.98 1006.18 1006.46 1006.78 1007.14 1007.50 1007.82 1008.10 1008.34 1008.62 1008.94 1009.34 1009.62 1009.74 1009.82 1010.18 1010.70 1011.18 1011.54 1011.86 1012.14 1012.42 1012.58 1012.62 1012.70 1012.82 1013.02 1013.26 1013.54 1013.78 1014.02 1014.22 1014.42 1014.58 1014.74 1014.86 1014.94 1015.06 1015.18 1015.34 1015.42 1015.58 1015.78 1015.90 1015.94
1001.82 1002.06 1002.26 1002.42 1002.58 1002.70 1002.82 1002.98 1003.14 1003.34 1003.50 1003.66 1003.78 1003.90 1004.02 1004.14 1004.22 1004.34 1004.50 1004.78 1005.10 1005.38 1005.62 1005.90 1006.06 1006.26 1006.46 1006.74 1007.10 1007.46 1007.78 1008.10 1008.46 1008.74 1009.02 1009.34 1009.62 1009.66 1009.78 1010.22 1010.82 1011.26 1011.50 1011.74 1012.06 1012.38 1012.58 1012.54 1012.46 1012.50 1012.70 1013.06 1013.34 1013.62 1013.86 1014.06 1014.26 1014.46 1014.62 1014.70 1014.78 1014.94 1015.10 1015.18 1015.34 1015.50 1015.62 1015.78 1015.90
1001.86 1002.06 1002.22 1002.42 1002.54 1002.62 1002.78 1002.90 1003.06 1003.22 1003.42 1003.62 1003.78 1003.90 1004.02 1004.14 1004.22 1004.34 1004.50 1004.78 1005.06 1005.30 1005.58 1005.90 1006.14 1006.34 1006.58 1006.90 1007.18 1007.50 1007.86 1008.18 1008.50 1008.78 1009.02 1009.22 1009.46 1009.62 1009.90 1010.38 1010.90 1011.30 1011.50 1011.58 1011.90 1012.26 1012.42 1012.34 1012.18 1012.22 1012.46 1012.86 1013.18 1013.46 1013.70 1013.90 1014.10 1014.30 1014.42 1014.50 1014.70 1014.90 1015.06 1015.14 1015.18 1015.34 1015.50 1015.62 1015.78
1001.78 1002.02 1002.22 1002.38 1002.50 1002.62 1002.74 1002.86 1002.98 1003.14 1003.34 1003.58 1003.78 1003.94 1004.10 1004.18 1004.22 1004.34 1004.46 1004.74 1005.06 1005.34 1005.62 1005.90 1006.14 1006.42 1006.74 1007.02 1007.30 1007.62 1007.98 1008.26 1008.54 1008.78 1008.94 1009.14 1009.30 1009.54 1009.90 1010.42 1010.86 1011.18 1011.42 1011.50 1011.78 1012.06 1012.18 1012.06 1011.98 1012.14 1012.42 1012.70 1013.02 1013.26 1013.50 1013.74 1013.90 1014.10 1014.30 1014.46 1014.62 1014.82 1014.90 1014.98 1015.10 1015.22 1015.38 1015.50 1015.66
1001.74 1001.98 1002.18 1002.34 1002.46 1002.58 1002.70 1002.82 1002.94 1003.10 1003.34 1003.54 1003.78 1004.02 1004.18 1004.22 1004.26 1004.34 1004.50 1004.74 1005.06 1005.38 1005.66 1005.90 1006.14 1006.42 1006.74 1007.06 1007.34 1007.70 1008.06 1008.34 1008.54 1008.70 1008.90 1009.10 1009.30 1009.58 1009.90 1010.34 1010.70 1011.06 1011.34 1011.50 1011.62 1011.78 1011.90 1011.90 1011.98 1012.18 1012.46 1012.66 1012.94 1013.18 1013.42 1013.62 1013.86 1014.06 1014.18 1014.34 1014.46 1014.58 1014.70 1014.82 1014.94 1015.06 1015.22 1015.34 1015.50
1001.74 1001.94 1002.10 1002.26 1002.38 1002.54 1002.66 1002.78 1002.90 1003.06 1003.26 1003.54 1003.78 1004.06 1004.18 1004.22 1004.30 1004.42 1004.62 1004.82 1005.10 1005.42 1005.70 1005.90 1006.14 1006.38 1006.66 1007.02 1007.34 1007.66 1008.02 1008.30 1008.46 1008.66 1008.86 1009.10 1009.30 1009.62 1010.02 1010.34 1010.66 1010.98 1011.22 1011.50 1011.62 1011.70 1011.78 1011.90 1012.06 1012.26 1012.46 1012.62 1012.90 1013.10 1013.34 1013.54 1013.78 1013.98 1014.06 1014.14 1014.22 1014.34 1014.50 1014.62 1014.78 1014.90 1015.02 1015.18 1015.34
1001.74 1001.90 1002.06 1002.22 1002.34 1002.50 1002.62 1002.78 1002.90 1003.06 1003.22 1003.50 1003.78 1004.02 1004.22 1004.30 1004.42 1004.54 1004.70 1004.90 1005.18 1005.46 1005.78 1006.02 1006.18 1006.42 1006.66 1006.98 1007.30 1007.62 1007.94 1008.26 1008.46 1008.70 1008.90 1009.06 1009.26 1009.66 1010.14 1010.46 1010.78 1010.98 1011.22 1011.50 1011.78 1011.82 1011.86 1011.90 1012.06 1012.18 1012.38 1012.62 1012.78 1012.98 1013.18 1013.46 1013.62 1013.78 1013.90 1014.02 1014.18 1014.26 1014.34 1014.46 1014.62 1014.74 1014.86 1015.06 1015.18
1001.74 1001.90 1002.02 1002.18 1002.34 1002.50 1002.62 1002.78 1002.90 1003.06 1003.26 1003.50 1003.78 1004.02 1004.18 1004.34 1004.46 1004.62 1004.78 1005.02 1005.22 1005.50 1005.82 1006.10 1006.34 1006.54 1006.78 1007.02 1007.30 1007.58 1007.90 1008.22 1008.54 1008.78 1008.94 1009.06 1009.22 1009.70 1010.22 1010.54 1010.78 1011.02 1011.26 1011.54 1011.82 1011.98 1011.98 1011.90 1011.98 1012.06 1012.26 1012.50 1012.66 1012.86 1013.06 1013.26 1013.42 1013.58 1013.74 1013.86 1013.98 1014.06 1014.18 1014.26 1014.38 1014.58 1014.74 1014.90 1014.98
1001.66 1001.86 1002.02 1002.18 1002.34 1002.46 1002.62 1002.78 1002.90 1003.10 1003.34 1003.50 1003.78 1003.98 1004.18 1004.34 1004.50 1004.70 1004.86 1005.06 1005.30 1005.58 1005.86 1006.14 1006.46 1006.66 1006.90 1007.10 1007.34 1007.62 1007.94 1008.30 1008.62 1008.86 1009.02 1009.14 1009.30 1009.74 1010.18 1010.46 1010.78 1011.06 1011.26 1011.50 1011.82 1011.98 1011.98 1011.86 1011.86 1011.94 1012.14 1012.34 1012.54 1012.74 1012.90 1013.06 1013.26 1013.42 1013.54 1013.66 1013.78 1013.86 1013.94 1014.06 1014.18 1014.34 1014.50 1014.62 1014.74
1001.62 1001.78 1001.98 1002.14 1002.26 1002.46 1002.58 1002.74 1002.90 1003.10 1003.34 1003.50 1003.70 1003.90 1004.10 1004.34 1004.50 1004.70 1004.90 1005.06 1005.34 1005.62 1005.90 1006.18 1006.46 1006.74 1006.98 1007.18 1007.46 1007.78 1008.06 1008.42 1008.74 1008.90 1009.06 1009.18 1009.38 1009.66 1009.98 1010.22 1010.54 1010.82 1011.10 1011.38 1011.66 1011.86 1011.90 1011.78 1011.74 1011.78 1011.94 1012.14 1012.34 1012.58 1012.74 1012.90 1013.10 1013.26 1013.34 1013.46 1013.54 1013.62 1013.78 1013.86 1014.02 1014.14 1014.18 1014.34 1014.42
1001.54 1001.70 1001.90 1002.06 1002.22 1002.38 1002.54 1002.66 1002.86 1003.06 1003.26 1003.42 1003.62 1003.82 1004.06 1004.26 1004.46 1004.70 1004.90 1005.10 1005.34 1005.62 1005.94 1006.22 1006.46 1006.70 1006.98 1007.30 1007.54 1007.86 1008.22 1008.58 1008.78 1008.94 1009.06 1009.18 1009.30 1009.46 1009.62 1009.82 1010.10 1010.34 1010.62 1010.90 1011.34 1011.62 1011.74 1011.66 1011.62 1011.66 1011.82 1012.02 1012.22 1012.46 1012.62 1012.78 1012.90 1013.06 1013.14 1013.22 1013.34 1013.42 1013.54 1013.66 1013.74 1013.82 1013.90 1014.06 1014.18
1001.54 1001.66 1001.82 1001.98 1002.18 1002.34 1002.50 1002.62 1002.78 1002.94 1003.14 1003.34 1003.54 1003.78 1003.94 1004.18 1004.38 1004.66 1004.90 1005.14 1005.38 1005.62 1005.90 1006.22 1006.46 1006.74 1007.02 1007.34 1007.62 1008.02 1008.34 1008.62 1008.78 1008.90 1008.94 1008.94 1008.94 1009.02 1009.18 1009.42 1009.66 1009.90 1010.18 1010.46 1010.90 1011.26 1011.46 1011.50 1011.50 1011.62 1011.78 1011.94 1012.14 1012.34 1012.46 1012.58 1012.70 1012.78 1012.90 1012.98 1013.06 1013.18 1013.34 1013.42 1013.46 1013.54 1013.70 1013.82 1013.94
1001.58 1001.66 1001.82 1001.98 1002.14 1002.34 1002.46 1002.62 1002.74 1002.90 1003.06 1003.18 1003.42 1003.66 1003.90 1004.18 1004.38 1004.62 1004.90 1005.18 1005.46 1005.66 1005.90 1006.18 1006.46 1006.74 1007.02 1007.34 1007.70 1008.06 1008.38 1008.58 1008.74 1008.78 1008.78 1008.62 1008.62 1008.66 1008.86 1009.14 1009.42 1009.66 1009.94 1010.22 1010.58 1010.90 1011.06 1011.22 1011.38 1011.54 1011.66 1011.86 1012.06 1012.18 1012.26 1012.38 1012.46 1012.58 1012.66 1012.78 1012.90 1012.98 1013.06 1013.18 1013.26 1013.34 1013.50 1013.62 1013.78
1001.62 1001.74 1001.86 1002.02 1002.14 1002.30 1002.46 1002.58 1002.70 1002.86 1003.02 1003.18 1003.34 1003.62 1003.90 1004.18 1004.38 1004.62 1004.90 1005.18 1005.50 1005.78 1005.94 1006.18 1006.42 1006.70 1007.02 1007.34 1007.66 1008.06 1008.34 1008.54 1008.70 1008.70 1008.58 1008.38 1008.34 1008.46 1008.66 1008.98 1009.30 1009.58 1009.82 1010.14 1010.42 1010.66 1010.86 1011.06 1011.22 1011.38 1011.58 1011.78 1011.90 1012.02 1012.10 1012.18 1012.30 1012.34 1012.46 1012.58 1012.70 1012.78 1012.86 1012.94 1013.06 1013.18 1013.34 1013.46 1013.58
1001.62 1001.78 1001.90 1002.06 1002.18 1002.34 1002.46 1002.62 1002.74 1002.90 1003.10 1003.26 1003.42 1003.62 1003.90 1004.18 1004.46 1004.62 1004.86 1005.14 1005.50 1005.78 1006.06 1006.18 1006.38 1006.62 1006.94 1007.26 1007.62 1007.90 1008.22 1008.50 1008.58 1008.46 1008.30 1008.18 1008.22 1008.38 1008.62 1008.94 1009.26 1009.54 1009.78 1010.06 1010.26 1010.46 1010.70 1010.90 1011.06 1011.22 1011.46 1011.62 1011.74 1011.86 1011.90 1012.02 1012.10 1012.18 1012.30 1012.38 1012.46 1012.54 1012.66 1012.78 1012.90 1013.06 1013.18 1013.30 1013.42
1001.66 1001.78 1001.94 1002.06 1002.22 1002.42 1002.58 1002.74 1002.86 1003.02 1003.18 1003.38 1003.54 1003.78 1004.02 1004.26 1004.46 1004.70 1004.90 1005.18 1005.50 1005.78 1006.06 1006.26 1006.38 1006.58 1006.82 1007.14 1007.42 1007.78 1008.14 1008.42 1008.42 1008.26 1008.18 1008.18 1008.30 1008.50 1008.78 1009.06 1009.30 1009.54 1009.78 1010.02 1010.18 1010.34 1010.54 1010.70 1010.86 1011.06 1011.30 1011.46 1011.58 1011.66 1011.78 1011.82 1011.90 1012.06 1012.18 1012.22 1012.30 1012.38 1012.46 1012.62 1012.78 1012.90 1013.02 1013.10 1013.18
1001.70 1001.86 1002.02 1002.14 1002.34 1002.54 1002.70 1002.82 1002.98 1003.10 1003.30 1003.50 1003.70 1003.90 1004.14 1004.34 1004.54 1004.74 1004.98 1005.18 1005.46 1005.74 1006.02 1006.26 1006.42 1006.58 1006.78 1006.98 1007.26 1007.62 1008.02 1008.34 1008.38 1008.34 1008.26 1008.34 1008.50 1008.78 1009.06 1009.18 1009.34 1009.50 1009.66 1009.86 1010.06 1010.18 1010.38 1010.54 1010.78 1010.94 1011.14 1011.26 1011.38 1011.50 1011.58 1011.66 1011.78 1011.86 1011.98 1012.14 1012.22 1012.30 1012.38 1012.50 1012.62 1012.78 1012.86 1012.94 1013.06
1001.78 1001.90 1002.06 1002.18 1002.38 1002.62 1002.78 1002.94 1003.10 1003.26 1003.46 1003.62 1003.86 1004.06 1004.26 1004.46 1004.62 1004.78 1005.02 1005.22 1005.50 1005.74 1005.98 1006.26 1006.46 1006.62 1006.78 1006.94 1007.18 1007.54 1007.94 1008.34 1008.46 1008.46 1008.46 1008.54 1008.74 1008.94 1009.18 1009.26 1009.30 1009.38 1009.54 1009.74 1009.90 1010.10 1010.26 1010.42 1010.58 1010.78 1010.94 1011.06 1011.18 1011.26 1011.38 1011.50 1011.62 1011.70 1011.82 1012.02 1012.14 1012.26 1012.34 1012.46 1012.62 1012.70 1012.78 1012.90 1012.98
1001.82 1001.98 1002.18 1002.34 1002.50 1002.66 1002.90 1003.06 1003.22 1003.38 1003.54 1003.78 1003.94 1004.14 1004.34 1004.50 1004.66 1004.86 1005.06 1005.30 1005.50 1005.74 1005.98 1006.26 1006.50 1006.74 1006.90 1007.06 1007.22 1007.50 1007.90 1008.26 1008.46 1008.54 1008.62 1008.70 1008.82 1009.02 1009.18 1009.26 1009.30 1009.34 1009.50 1009.78 1009.98 1010.14 1010.22 1010.34 1010.38 1010.54 1010.70 1010.82 1010.94 1011.06 1011.18 1011.34 1011.50 1011.62 1011.78 1011.90 1012.06 1012.22 1012.38 1012.54 1012.62 1012.70 1012.78 1012.86 1012.90
1001.86 1002.06 1002.22 1002.42 1002.62 1002.78 1002.94 1003.14 1003.30 1003.50 1003.62 1003.82 1004.02 1004.18 1004.34 1004.54 1004.74 1004.94 1005.18 1005.46 1005.66 1005.90 1006.14 1006.34 1006.62 1006.82 1007.06 1007.18 1007.34 1007.54 1007.78 1007.98 1008.18 1008.34 1008.54 1008.66 1008.82 1009.06 1009.18 1009.30 1009.30 1009.34 1009.50 1009.70 1009.90 1010.06 1010.14 1010.22 1010.30 1010.34 1010.46 1010.58 1010.74 1010.90 1011.06 1011.22 1011.38 1011.54 1011.74 1011.90 1012.10 1012.34 1012.50 1012.66 1012.70 1012.78 1012.78 1012.82 1012.90
1001.90 1002.06 1002.26 1002.46 1002.66 1002.82 1003.02 1003.18 1003.34 1003.50 1003.70 1003.86 1004.06 1004.22 1004.42 1004.66 1004.90 1005.14 1005.38 1005.62 1005.86 1006.06 1006.22 1006.46 1006.66 1006.90 1007.14 1007.26 1007.34 1007.46 1007.50 1007.62 1007.82 1008.06 1008.26 1008.46 1008.62 1008.90 1009.14 1009.30 1009.34 1009.34 1009.42 1009.62 1009.82 1009.94 1010.06 1010.14 1010.22 1010.34 1010.38 1010.46 1010.58 1010.78 1010.90 1011.14 1011.34 1011.54 1011.78 1012.02 1012.18 1012.38 1012.54 1012.70 1012.78 1012.86 1012.90 1012.98 1013.06
1001.90 1002.10 1002.30 1002.50 1002.70 1002.86 1003.06 1003.22 1003.42 1003.58 1003.78 1003.90 1004.10 1004.30 1004.50 1004.78 1005.06 1005.30 1005.50 1005.78 1005.94 1006.10 1006.30 1006.46 1006.66 1006.90 1007.10 1007.18 1007.26 1007.30 1007.34 1007.46 1007.62 1007.86 1008.06 1008.26 1008.50 1008.78 1009.02 1009.18 1009.26 1009.34 1009.46 1009.62 1009.78 1009.94 1010.06 1010.18 1010.30 1010.38 1010.50 1010.62 1010.66 1010.78 1010.98 1011.22 1011.50 1011.70 1011.90 1012.18 1012.34 1012.50 1012.66 1012.82 1012.90 1013.02 1013.14 1013.26 1013.34
1001.94 1002.14 1002.34 1002.50 1002.74 1002.90 1003.10 1003.30 1003.50 1003.62 1003.82 1004.02 1004.18 1004.38 1004.62 1004.82 1005.06 1005.34 1005.50 1005.74 1005.90 1006.06 1006.18 1006.34 1006.50 1006.70 1006.86 1006.94 1007.06 1007.18 1007.34 1007.50 1007.62 1007.82 1008.06 1008.26 1008.46 1008.66 1008.90 1009.06 1009.18 1009.30 1009.50 1009.74 1009.86 1009.94 1010.06 1010.22 1010.34 1010.46 1010.58 1010.70 1010.78 1010.90 1011.06 1011.30 1011.58 1011.86 1012.18 1012.50 1012.78 1012.94 1013.06 1013.14 1013.30 1013.46 1013.62 1013.66 1013.62
1001.98 1002.18 1002.34 1002.54 1002.74 1002.90 1003.14 1003.34 1003.54 1003.70 1003.90 1004.10 1004.30 1004.46 1004.62 1004.82 1005.02 1005.18 1005.38 1005.58 1005.70 1005.82 1005.94 1006.06 1006.22 1006.38 1006.58 1006.74 1006.90 1007.10 1007.34 1007.50 1007.62 1007.82 1008.06 1008.22 1008.38 1008.54 1008.70 1008.86 1008.98 1009.18 1009.50 1009.82 1009.90 1009.94 1010.06 1010.22 1010.34 1010.46 1010.58 1010.70 1010.82 1010.94 1011.10 1011.34 1011.66 1012.14 1012.62 1013.02 1013.26 1013.42 1013.50 1013.54 1013.70 1013.90 1013.98 1013.94 1013.90
1002.02 1002.18 1002.34 1002.54 1002.78 1002.98 1003.18 1003.38 1003.58 1003.78 1003.98 1004.18 1004.34 1004.50 1004.62 1004.78 1004.90 1005.02 1005.14 1005.30 1005.42 1005.58 1005.74 1005.86 1006.06 1006.22 1006.42 1006.62 1006.82 1007.06 1007.26 1007.42 1007.58 1007.74 1007.90 1008.06 1008.22 1008.34 1008.46 1008.58 1008.70 1009.18 1009.78 1010.02 1009.98 1009.98 1010.10 1010.26 1010.42 1010.50 1010.58 1010.70 1010.86 1011.02 1011.18 1011.50 1011.90 1012.46 1013.02 1013.42 1013.62 1013.78 1013.78 1013.90 1014.06 1014.18 1014.30 1014.26 1014.26
1002.06 1002.22 1002.38 1002.58 1002.78 1002.98 1003.18 1003.42 1003.62 1003.86 1004.06 1004.18 1004.34 1004.50 1004.62 1004.74 1004.78 1004.82 1004.94 1005.10 1005.26 1005.50 1005.74 1005.90 1006.06 1006.18 1006.34 1006.54 1006.78 1006.94 1007.10 1007.26 1007.34 1007.50 1007.66 1007.82 1007.98 1008.18 1008.46 1008.74 1008.98 1009.70 1010.26 1010.10 1010.06 1010.14 1010.22 1010.38 1010.50 1010.62 1010.70 1010.82 1010.90 1011.06 1011.34 1011.82 1012.42 1012.94 1013.34 1013.70 1013.94 1014.06 1014.18 1014.30 1014.46 1014.58 1014.58 1014.62 1014.66
1002.06 1002.26 1002.42 1002.62 1002.78 1003.02 1003.18 1003.42 1003.62 1003.82 1004.02 1004.18 1004.34 1004.46 1004.54 1004.54 1004.62 1004.70 1004.86 1005.06 1005.26 1005.50 1005.70 1005.94 1006.14 1006.30 1006.42 1006.62 1006.78 1006.90 1007.06 1007.18 1007.34 1007.50 1007.74 1007.94 1008.10 1008.50 1009.10 1009.78 1010.18 1010.30 1010.26 1010.22 1010.22 1010.30 1010.42 1010.50 1010.62 1010.70 1010.78 1010.82 1011.06 1011.34 1011.78 1012.26 1012.78 1013.30 1013.70 1014.06 1014.30 1014.46 1014.62 1014.74 1014.82 1014.90 1014.98 1015.06 1015.06
1002.10 1002.30 1002.46 1002.62 1002.82 1003.06 1003.22 1003.42 1003.62 1003.82 1004.02 1004.18 1004.30 1004.42 1004.46 1004.46 1004.58 1004.70 1004.78 1004.98 1005.22 1005.50 1005.78 1005.98 1006.18 1006.34 1006.50 1006.70 1006.90 1007.18 1007.54 1008.06 1008.42 1008.66 1008.78 1008.86 1009.06 1009.42 1009.82 1010.14 1010.34 1010.38 1010.34 1010.34 1010.34 1010.46 1010.58 1010.62 1010.70 1010.78 1010.86 1011.06 1011.34 1011.74 1012.18 1012.66 1013.18 1013.62 1013.98 1014.38 1014.66 1014.86 1014.98 1015.06 1015.14 1015.22 1015.34 1015.34 1015.34
1002.06 1002.26 1002.46 1002.66 1002.82 1003.02 1003.22 1003.42 1003.62 1003.78 1003.94 1004.10 1004.26 1004.34 1004.42 1004.46 1004.54 1004.66 1004.82 1005.06 1005.34 1005.58 1005.86 1006.14 1006.46 1006.86 1007.18 1007.50 1007.78 1008.10 1008.42 1008.74 1009.02 1009.18 1009.30 1009.34 1009.50 1009.78 1010.14 1010.38 1010.46 1010.50 1010.50 1010.50 1010.58 1010.66 1010.74 1010.74 1010.78 1010.86 1011.02 1011.26 1011.66 1012.14 1012.62 1013.06 1013.58 1013.98 1014.30 1014.62 1014.90 1015.06 1015.18 1015.18 1015.34 1015.54 1015.62 1015.62 1015.62
1001.98 1002.18 1002.42 1002.62 1002.82 1003.02 1003.18 1003.34 1003.58 1003.74 1003.90 1004.02 1004.18 1004.34 1004.42 1004.42 1004.54 1004.70 1004.90 1005.18 1005.50 1005.78 1006.10 1006.62 1007.14 1007.54 1007.90 1008.18 1008.58 1008.90 1009.14 1009.30 1009.50 1009.58 1009.66 1009.78 1009.86 1010.10 1010.38 1010.58 1010.62 1010.70 1010.78 1010.82 1010.86 1010.90 1010.90 1010.90 1010.86 1010.90 1011.10 1011.50 1011.94 1012.46 1013.02 1013.50 1013.94 1014.30 1014.58 1014.78 1014.98 1015.18 1015.42 1015.58 1015.74 1015.90 1015.94 1015.90 1015.90
1001.90 1002.14 1002.34 1002.58 1002.78 1002.94 1003.14 1003.30 1003.50 1003.66 1003.82 1003.98 1004.14 1004.30 1004.42 1004.46 1004.62 1004.78 1005.02 1005.34 1005.62 1006.06 1006.58 1007.22 1007.78 1008.18 1008.46 1008.78 1009.18 1009.46 1009.62 1009.74 1009.82 1009.90 1010.06 1010.18 1010.26 1010.42 1010.62 1010.78 1010.90 1011.02 1011.10 1011.10 1011.06 1011.10 1011.14 1011.10 1010.98 1010.98 1011.18 1011.70 1012.26 1012.78 1013.30 1013.78 1014.14 1014.46 1014.78 1015.06 1015.22 1015.50 1015.82 1016.06 1016.14 1016.18 1016.22 1016.26 1016.22
1001.86 1002.06 1002.26 1002.50 1002.70 1002.90 1003.06 1003.26 1003.42 1003.62 1003.78 1003.94 1004.10 1004.30 1004.42 1004.46 1004.62 1004.82 1005.06 1005.46 1005.70 1006.18 1007.02 1007.90 1008.34 1008.70 1009.02 1009.26 1009.54 1009.78 1009.90 1010.06 1010.14 1010.22 1010.34 1010.50 1010.62 1010.74 1010.86 1011.06 1011.22 1011.34 1011.34 1011.34 1011.34 1011.34 1011.38 1011.38 1011.22 1011.14 1011.34 1011.90 1012.46 1012.94 1013.42 1013.82 1014.22 1014.62 1015.02 1015.42 1015.78 1016.02 1016.18 1016.26 1016.38 1016.50 1016.62 1016.62 1016.58
1001.74 1001.94 1002.18 1002.42 1002.62 1002.82 1003.02 1003.22 1003.38 1003.54 1003.74 1003.90 1004.10 1004.34 1004.46 1004.50 1004.66 1004.86 1005.10 1005.46 1005.90 1006.62 1007.54 1008.34 1008.78 1009.10 1009.34 1009.50 1009.62 1009.86 1010.10 1010.34 1010.46 1010.62 1010.78 1010.90 1011.06 1011.18 1011.30 1011.46 1011.62 1011.66 1011.62 1011.58 1011.54 1011.58 1011.66 1011.70 1011.58 1011.50 1011.54 1011.98 1012.50 1013.02 1013.46 1013.90 1014.34 1014.82 1015.26 1015.62 1015.94 1016.22 1016.42 1016.58 1016.74 1016.86 1016.98 1016.98 1016.90
1001.58 1001.78 1002.06 1002.34 1002.50 1002.74 1002.94 1003.18 1003.34 1003.54 1003.70 1003.90 1004.10 1004.34 1004.46 1004.58 1004.78 1005.02 1005.38 1005.90 1006.62 1007.46 1008.14 1008.62 1009.06 1009.38 1009.54 1009.62 1009.74 1010.02 1010.42 1010.78 1011.06 1011.26 1011.38 1011.50 1011.62 1011.74 1011.82 1011.90 1011.98 1012.06 1011.98 1011.90 1011.86 1011.90 1011.94 1012.02 1012.02 1011.90 1011.90 1012.14 1012.58 1013.06 1013.50 1014.02 1014.54 1015.02 1015.46 1015.78 1016.06 1016.42 1016.70 1016.94 1017.06 1017.18 1017.34 1017.38 1017.34
1001.50 1001.70 1001.94 1002.22 1002.38 1002.62 1002.90 1003.14 1003.34 1003.54 1003.70 1003.86 1003.98 1004.18 1004.46 1004.82 1005.22 1005.62 1006.14 1006.74 1007.34 1007.90 1008.46 1008.90 1009.34 1009.62 1009.74 1009.78 1010.06 1010.46 1010.98 1011.38 1011.74 1011.90 1012.02 1012.06 1012.18 1012.22 1012.34 1012.38 1012.46 1012.46 1012.46 1012.38 1012.34 1012.30 1012.30 1012.38 1012.42 1012.34 1012.34 1012.50 1012.78 1013.18 1013.62 1014.14 1014.70 1015.22 1015.66 1016.02 1016.30 1016.58 1016.90 1017.22 1017.42 1017.58 1017.70 1017.78 1017.82
Wind_Speed
9 8 7 6 6 5 5 5 4 4 4 4 5 6 7 8 9 9 8 9 9 9 9 10 11 14 17 19 18 17 15 14 15 15 15 16 16 17 19 19 19 18 19 19 18 16 14 13 12 9 7 5 5 5 5 5 6 7 6 6 6 5 6 7 8 8 9 9 7
10 9 8 6 6 5 5 5 4 4 4 4 4 5 6 8 8 9 9 9 8 8 9 10 13 16 18 19 17 17 16 15 16 16 16 17 17 18 19 19 19 18 18 19 18 15 13 13 12 10 8 6 6 7 8 9 9 8 8 8 6 5 5 6 7 8 9 8 7
10 9 8 7 7 6 6 6 6 5 5 4 4 4 5 7 8 8 8 8 8 8 9 11 14 17 18 18 16 15 14 14 16 16 15 16 17 17 18 18 18 18 16 15 16 14 12 13 11 11 10 9 10 11 11 11 9 8 8 9 6 5 5 6 7 7 7 6 6
10 10 9 9 9 9 8 7 7 7 6 5 4 4 4 6 7 8 9 9 9 8 8 11 14 16 16 15 14 14 13 12 15 15 15 14 16 17 17 18 19 19 17 14 14 14 13 13 11 10 11 13 14 13 12 10 8 7 7 7 6 5 6 6 6 5 5 6 6
10 10 9 9 10 10 9 8 9 8 7 5 5 5 4 5 7 8 9 9 8 7 8 11 14 14 14 13 14 14 14 12 13 13 13 13 14 15 17 17 18 18 17 16 14 13 12 12 9 9 10 12 12 12 11 9 8 7 6 5 5 5 6 6 5 5 5 5 5
10 10 10 9 10 9 8 8 9 9 7 6 7 6 5 5 6 8 10 10 9 9 9 10 12 12 12 13 13 14 13 12 12 13 14 14 13 14 16 17 16 16 15 16 15 14 12 10 8 7 7 8 8 8 9 8 7 6 6 5 5 5 5 5 5 5 5 6 6
10 10 10 10 11 10 9 9 9 9 8 7 9 9 8 6 7 10 12 11 10 10 9 8 10 10 11 12 13 13 12 12 12 13 14 14 13 14 15 16 15 14 14 15 16 14 12 10 8 7 6 6 5 6 7 8 7 7 7 7 6 5 5 6 5 4 5 7 8
10 10 10 11 11 11 11 11 10 9 8 8 9 10 9 8 9 11 12 12 11 11 10 9 10 11 11 12 12 13 13 13 13 13 14 14 14 15 15 16 14 13 13 15 15 14 12 9 7 6 6 5 4 5 7 8 8 8 8 8 6 5 5 6 5 5 6 7 8
9 9 10 11 11 12 12 12 12 11 10 10 10 10 8 7 8 10 12 11 11 11 11 11 12 13 13 13 13 13 13 13 14 14 14 14 15 15 15 15 14 12 12 12 14 14 12 8 6 6 5 5 5 6 7 8 9 10 9 8 7 6 6 7 7 7 7 7 8
9 9 10 10 11 11 12 12 12 12 12 12 11 9 7 5 7 9 11 11 11 12 12 12 13 14 14 14 14 14 13 13 14 15 15 14 15 16 16 15 14 12 9 8 11 12 11 7 6 6 6 5 6 7 7 8 9 10 10 8 8 9 9 8 8 8 8 8 9
10 10 10 9 10 11 11 12 11 11 12 12 12 9 7 6 7 9 10 11 12 13 13 13 14 15 15 14 14 14 13 12 13 14 15 15 15 16 16 15 15 13 10 6 7 8 8 7 8 8 8 7 7 7 7 8 9 10 11 10 10 10 10 9 9 9 8 8 9
11 10 10 9 10 10 10 11 10 10 12 13 12 10 8 7 8 9 11 13 14 14 14 14 14 15 14 13 13 13 13 13 13 14 15 16 16 16 15 14 14 13 11 8 6 6 8 9 10 10 10 9 8 7 8 9 10 11 12 11 10 10 10 11 10 9 9 9 9
11 10 10 9 9 10 10 9 9 10 11 13 13 11 9 8 9 10 12 13 13 13 13 13 14 13 13 12 12 13 13 13 13 14 14 15 16 16 16 14 13 12 11 9 7 7 9 10 11 12 12 11 9 9 9 10 11 12 12 12 11 11 11 11 11 10 10 10 10
11 11 10 10 10 9 9 9 8 9 11 13 13 11 9 8 9 10 11 12 13 13 13 12 12 11 11 12 12 13 13 13 13 14 14 14 15 16 17 15 15 13 11 10 9 10 11 12 13 13 13 13 12 11 11 11 11 12 12 12 12 12 12 12 12 11 11 11 11
11 12 11 11 10 9 9 10 9 9 10 12 12 11 9 9 9 10 11 12 13 13 13 12 11 11 11 12 12 12 13 13 14 15 15 15 16 17 18 17 17 16 14 12 12 12 14 14 14 14 14 14 14 13 12 11 12 12 12 13 13 13 13 13 12 12 12 12 12
11 12 12 12 11 10 9 9 9 9 10 11 11 11 10 9 9 10 11 12 12 12 12 13 12 11 11 11 11 11 12 13 15 16 17 18 19 19 19 19 20 19 18 17 15 15 15 15 14 14 14 14 14 14 13 12 12 12 13 13 13 14 14 13 13 13 12 12 12
11 12 12 12 12 10 9 9 9 10 11 11 12 11 10 10 10 10 11 11 11 12 13 14 13 12 11 10 10 10 10 10 14 16 18 20 21 21 20 20 20 19 19 18 18 17 17 16 14 13 14 14 14 14 14 13 13 13 13 13 13 14 14 13 13 13 12 12 12
10 11 12 12 12 11 10 10 10 11 12 14 13 12 11 11 11 11 11 11 12 13 14 15 13 13 12 12 10 9 8 9 12 15 18 20 21 20 19 18 17 17 16 16 17 17 16 15 14 13 12 13 13 13 13 13 13 13 13 13 13 13 13 13 12 12 11 11 12
9 10 10 11 12 12 11 10 11 12 14 15 14 13 13 13 13 13 12 12 12 13 15 15 14 14 13 13 11 9 8 8 11 15 17 18 18 17 16 15 14 14 13 14 14 15 15 14 13 13 12 12 12 12 13 13 13 13 13 13 13 13 12 12 11 11 10 10 10
9 9 10 11 11 11 11 11 11 12 13 14 14 15 14 14 14 14 14 14 13 13 14 14 15 15 14 14 12 10 8 8 12 14 15 15 14 14 13 12 11 11 11 12 12 13 13 13 13 13 12 12 12 12 12 12 12 12 12 12 12 12 12 11 10 10 9 9 9
9 9 9 10 10 10 11 11 11 12 13 13 14 15 15 14 14 15 15 15 14 13 13 14 15 16 16 15 13 11 9 7 11 12 13 12 12 11 10 9 9 9 10 11 12 12 13 13 13 13 12 12 12 12 12 12 12 12 12 11 11 11 11 10 9 9 9 9 9
9 9 9 9 9 9 9 10 10 11 12 13 13 14 14 14 14 15 15 15 15 14 13 13 14 16 16 16 14 12 10 7 9 10 10 9 10 9 9 8 8 9 9 10 12 12 13 13 13 12 12 12 12 12 12 11 11 11 11 11 10 10 9 9 9 9 9 9 9
9 9 9 8 8 8 8 9 9 10 11 12 13 13 14 14 14 14 14 14 14 14 13 12 13 14 16 16 15 13 11 9 9 9 9 9 10 10 10 9 9 9 10 10 11 12 12 12 12 12 12 11 12 12 12 11 11 10 10 10 10 9 9 8 8 8 8 8 8
9 9 8 8 9 9 8 8 9 9 10 11 12 13 13 13 13 13 13 13 13 14 13 10 10 12 14 15 15 15 14 13 12 11 11 11 12 12 12 11 10 10 10 9 10 11 11 11 11 11 11 11 11 11 11 11 10 10 10 10 9 8 8 7 7 7 7 7 7
10 9 9 9 9 9 9 9 9 9 10 10 11 12 12 12 12 12 12 12 12 12 12 11 10 10 11 13 15 16 16 16 15 15 14 14 14 13 12 11 10 9 8 8 10 11 12 11 10 10 10 11 11 10 10 9 9 9 9 8 8 7 6 6 6 6 6 6 6
10 10 10 10 10 10 10 10 10 10 10 10 10 11 11 10 10 10 10 10 10 10 11 11 10 10 10 11 14 16 17 17 17 17 17 16 15 14 13 12 10 9 8 8 11 12 13 13 12 11 10 10 10 9 8 8 8 8 7 7 6 5 5 5 5 5 4 4 3
10 10 11 10 11 10 10 10 10 9 10 10 10 10 10 10 9 9 9 9 10 10 10 10 11 10 10 11 14 16 16 15 16 16 17 16 16 15 14 13 11 9 8 9 11 12 13 13 12 10 9 8 8 7 7 6 6 5 4 4 3 3 3 4 3 2 1 1 2
10 10 11 11 11 11 10 10 10 10 10 9 10 10 11 11 11 10 10 10 10 10 10 10 11 11 10 11 14 15 16 15 14 14 14 15 15 15 14 13 11 9 7 7 8 8 9 9 8 7 5 4 4 4 4 4 3 3 3 3 3 3 2 2 2 3 4 5 5
10 10 11 11 11 11 11 10 10 10 10 9 10 10 11 12 13 13 12 12 12 12 11 10 11 11 11 11 13 14 14 14 13 12 12 13 14 14 14 13 11 8 5 5 6 6 6 5 5 4 4 3 2 2 2 2 3 5 6 6 6 6 6 5 6 6 6 6 5
10 10 11 11 12 11 11 11 10 10 9 9 10 11 12 13 14 14 14 14 14 13 12 10 10 10 11 12 12 12 12 12 12 12 12 13 14 14 13 12 11 7 7 10 9 9 9 8 7 7 6 5 3 2 2 3 5 6 7 6 7 7 7 7 8 7 6 5 6
10 10 11 11 12 12 11 11 10 10 10 9 10 11 12 13 14 15 15 15 13 11 10 9 10 10 10 10 10 11 11 11 11 11 12 13 13 12 12 11 10 4 9 10 10 10 10 9 8 8 7 7 5 4 4 6 8 8 8 7 8 8 8 8 8 8 8 7 7
10 10 10 11 12 12 11 11 10 10 10 10 11 12 13 14 14 13 13 12 11 9 7 7 8 8 9 9 9 10 11 12 12 13 12 12 11 8 5 4 3 6 8 6 8 9 9 8 8 8 8 7 7 7 8 10 10 10 9 10 10 10 9 9 8 8 9 9 8
10 10 10 10 11 12 12 11 11 10 10 10 11 11 12 13 12 11 11 9 8 6 5 4 5 6 7 7 8 9 8 6 4 3 3 2 2 5 9 11 9 7 5 7 8 9 9 9 9 10 11 11 10 11 11 11 10 10 10 10 11 11 11 11 10 9 9 9 8
10 10 10 10 11 11 12 12 11 11 10 10 10 11 11 11 10 10 9 7 6 4 3 3 3 3 3 3 3 5 6 8 9 10 11 11 12 12 11 7 5 5 7 9 9 9 9 10 13 14 15 14 12 12 12 13 11 11 11 11 11 11 11 11 11 11 10 9 7
10 11 11 11 11 11 12 12 11 11 10 10 10 10 10 9 9 8 7 6 4 3 4 6 8 10 11 12 13 13 13 12 11 11 10 10 11 11 10 7 6 7 10 9 7 8 9 12 15 16 15 13 11 11 13 13 12 12 12 12 12 12 12 12 12 12 11 9 9
10 11 11 11 12 12 12 12 12 11 11 11 10 10 9 7 7 6 6 5 4 4 6 11 12 13 13 14 13 13 12 12 11 11 11 11 11 11 10 8 8 9 10 8 5 6 8 11 14 15 14 12 11 11 12 12 11 12 12 13 13 14 15 14 13 12 11 10 10
10 10 11 11 12 12 12 12 12 12 12 11 10 9 8 8 6 5 5 4 4 5 9 13 13 13 13 13 13 12 11 11 11 11 11 11 11 10 10 10 10 10 9 8 4 4 6 8 12 14 14 12 11 11 11 10 10 10 12 13 14 14 14 12 12 13 13 13 12
9 9 10 10 11 11 12 12 12 12 12 12 10 9 8 7 6 5 5 4 4 7 11 14 13 12 12 12 12 12 12 12 12 12 12 12 11 11 11 11 11 10 9 8 5 3 4 5 9 12 14 13 12 11 10 9 10 11 12 12 12 12 11 10 10 12 14 17 17
9 9 9 9 10 10 11 11 12 12 12 11 9 8 7 7 6 5 4 3 5 9 13 14 13 11 11 11 12 13 14 15 15 14 14 13 13 13 13 12 11 11 10 11 8 6 4 4 7 12 15 14 12 11 10 10 11 12 12 11 11 11 11 10 9 10 13 17 21
9 9 9 9 9 9 10 10 10 10 10 10 10 9 8 7 5 4 5 8 12 14 14 13 12 11 10 10 13 15 16 16 16 16 15 15 15 15 14 13 12 12 13 14 12 10 8 6 8 11 13 12 11 10 10 10 12 12 11 10 10 10 10 10 9 10 11 14 18
10 9 9 9 9 8 8 8 9 9 9 8 8 7 6 5 5 7 10 13 14 14 13 12 12 12 12 12 14 16 17 17 16 15 15 15 15 15 14 13 14 14 14 15 15 14 12 10 9 10 10 10 10 10 10 10 12 12 11 10 10 9 9 9 9 9 10 11 12
Wind_Direction
173 173 174 173 171 169 166 163 163 163 161 156 158 159 159 155 152 152 154 156 156 155 156 159 163 162 161 159 164 168 166 151 150 153 158 161 153 149 150 155 160 166 173 180 184 186 188 188 187 188 192 201 213 225 231 230 225 222 219 212 210 205 199 197 200 201 201 201 200
173 172 170 167 165 164 162 159 160 160 159 154 154 155 154 150 148 147 148 150 151 152 155 158 163 163 162 160 165 168 165 152 150 153 158 163 157 152 151 156 162 168 174 179 180 180 181 179 178 178 181 187 203 219 227 227 222 218 214 210 208 205 201 203 206 204 203 203 203
170 169 167 166 166 165 164 162 163 162 159 153 152 152 150 149 146 144 144 146 147 150 154 160 164 163 162 161 165 167 164 151 151 153 156 161 160 155 153 157 164 171 177 179 176 175 174 173 172 171 172 177 191 209 221 227 218 211 207 207 206 204 204 208 209 206 205 206 206
167 167 167 169 169 169 167 164 163 162 160 153 151 150 150 148 146 145 145 145 145 148 156 162 163 162 162 161 163 165 163 152 151 151 153 156 158 156 155 157 165 174 181 184 178 173 170 170 170 169 169 172 184 198 212 219 210 205 205 206 205 205 208 211 209 207 206 210 209
167 167 169 172 172 170 167 164 163 161 159 154 154 155 154 150 147 147 148 150 149 150 155 160 160 160 159 157 157 159 159 153 150 149 150 153 155 155 154 153 160 170 179 186 184 179 173 170 172 170 169 169 178 190 200 203 198 199 202 205 206 207 209 212 210 208 208 212 212
167 168 170 173 173 171 167 164 162 161 159 157 160 160 158 155 153 154 155 155 151 147 147 153 154 153 151 149 149 151 153 152 148 147 148 151 154 153 149 147 153 160 170 180 186 188 185 177 179 175 169 165 173 182 187 184 186 193 200 204 208 209 211 214 214 211 210 214 215
165 166 170 173 174 172 167 164 162 160 159 160 164 165 164 161 161 159 157 153 148 144 143 146 148 146 144 142 143 146 149 151 148 146 147 151 155 150 144 142 148 158 169 177 184 190 194 189 186 178 167 158 166 173 176 175 180 189 198 204 206 207 209 215 216 213 211 214 216
163 166 170 175 175 173 168 164 161 160 161 164 168 168 166 164 164 160 154 148 146 146 147 147 147 145 141 138 139 143 147 152 152 150 148 149 151 146 141 140 149 161 173 180 184 190 196 197 189 178 168 161 167 173 174 173 179 187 197 204 205 206 208 215 215 213 212 214 216
162 166 171 176 177 174 170 165 163 162 163 166 169 167 163 159 159 154 150 146 146 147 148 148 148 145 141 137 139 142 147 152 157 157 154 149 149 146 143 143 153 163 174 182 186 190 195 199 191 183 175 172 178 178 177 175 181 189 197 204 205 207 210 214 213 212 211 212 215
160 164 169 175 178 175 170 166 163 162 162 164 164 160 152 143 145 145 145 144 144 145 147 148 148 145 143 141 142 144 148 152 157 159 157 153 151 149 148 150 156 163 171 181 184 188 192 196 193 192 192 189 189 186 182 179 185 193 199 205 207 208 209 211 210 210 210 211 213
159 162 166 170 173 172 169 165 161 159 159 159 156 150 140 130 132 136 139 141 142 144 146 147 146 145 144 144 146 148 150 154 157 157 157 157 157 157 156 156 159 162 168 177 181 184 187 193 197 202 205 202 197 192 188 185 191 198 204 209 207 207 207 208 208 208 209 211 212
158 160 162 163 164 166 165 163 158 155 154 154 151 145 137 129 129 131 135 139 141 142 143 143 143 144 144 144 147 149 151 155 156 157 158 160 163 165 167 166 165 166 169 177 183 187 189 194 201 206 209 208 203 198 194 192 197 202 207 209 206 205 206 207 207 207 209 209 210
160 161 161 158 158 161 162 161 156 152 152 152 151 146 138 132 129 131 135 139 141 141 140 140 140 140 140 142 145 149 153 157 159 160 160 161 164 170 176 180 179 178 177 179 189 196 199 199 204 207 210 211 209 205 200 196 199 202 205 207 205 205 206 207 206 206 207 208 210
163 164 163 159 158 160 162 162 157 153 151 152 151 146 140 135 132 133 136 139 140 140 139 138 137 137 137 139 144 149 155 160 164 165 165 162 162 168 177 185 187 187 186 185 194 203 209 208 207 208 210 211 211 208 203 198 199 201 203 205 205 207 208 207 205 205 205 207 211
167 167 167 164 162 163 164 164 161 156 152 151 149 145 140 136 135 135 136 138 140 141 141 140 138 137 136 136 141 148 155 164 171 175 174 169 165 168 174 180 184 186 188 189 196 206 214 217 213 211 210 211 212 210 206 201 201 202 204 205 206 208 209 209 207 205 205 207 211
170 170 170 169 167 166 166 166 162 158 154 150 146 143 140 137 137 136 136 138 139 141 143 143 142 139 137 136 140 146 155 167 176 180 180 176 173 173 174 176 180 182 184 186 194 204 214 219 216 213 211 211 211 210 207 204 203 204 205 207 208 210 211 211 209 208 208 208 212
172 171 171 171 169 168 166 165 161 158 154 149 144 141 139 138 137 137 137 138 139 142 144 146 145 142 140 139 142 149 159 172 178 181 180 178 176 175 174 176 178 180 181 182 189 199 209 215 215 212 210 210 210 209 208 206 205 206 207 208 210 212 213 213 212 211 211 212 215
170 170 169 171 170 169 166 163 160 157 154 150 145 142 139 138 139 138 138 138 140 142 145 147 146 144 143 143 147 154 166 180 183 183 182 179 177 175 175 177 179 181 182 183 189 196 203 209 209 209 208 208 209 209 208 207 207 208 209 210 212 214 215 215 214 214 215 216 219
167 167 168 169 171 170 167 163 160 158 156 153 148 144 141 140 141 140 140 140 141 143 145 146 146 146 145 146 149 156 169 186 191 190 187 181 176 174 175 178 182 185 188 191 194 198 202 204 205 205 206 207 208 209 209 209 210 211 211 212 214 216 217 217 217 217 217 219 222
166 167 167 169 171 170 169 165 161 159 157 154 149 146 143 143 143 144 144 143 143 144 145 146 147 147 148 148 151 157 168 189 197 195 190 181 176 175 177 181 186 190 194 197 201 203 204 205 205 205 205 206 208 209 210 211 212 213 214 215 216 217 218 218 218 218 220 221 222
167 167 167 166 168 169 168 165 161 159 158 154 149 146 145 146 147 147 147 146 145 146 148 149 150 150 151 152 155 160 169 191 202 198 190 178 176 178 184 190 193 197 200 202 205 207 207 207 206 206 206 207 208 210 211 212 214 215 216 217 218 218 217 217 217 218 219 221 221
167 165 162 160 160 162 163 161 158 158 157 156 151 148 148 149 150 150 148 147 147 149 151 153 154 154 155 156 158 161 169 189 202 199 189 177 178 185 195 206 208 207 206 207 209 210 210 210 209 208 207 208 210 211 212 213 215 216 218 219 220 219 218 216 216 217 218 220 221
163 160 157 152 151 152 153 153 152 153 155 156 154 152 151 152 151 149 148 148 149 151 153 155 157 159 159 159 160 163 171 187 198 198 192 183 185 192 203 217 220 217 212 211 211 212 212 212 211 210 209 210 212 213 214 215 216 217 219 220 221 221 220 218 217 217 219 222 223
157 156 153 149 148 147 147 147 147 148 150 152 152 152 151 150 148 146 145 147 149 151 153 155 159 161 162 162 163 167 174 186 194 196 194 191 191 197 206 219 225 223 218 213 211 210 210 212 212 211 211 212 214 215 216 216 217 218 220 221 222 223 223 223 221 221 223 225 226
155 154 152 151 150 149 148 147 147 147 147 147 147 146 145 143 141 141 142 144 148 151 153 155 160 165 168 169 170 174 179 186 191 194 195 195 195 199 207 219 225 225 219 213 209 207 206 207 208 210 212 213 215 216 217 216 217 219 220 221 222 224 227 229 228 227 226 226 227
157 156 156 154 152 151 150 149 148 147 144 142 141 139 138 135 134 136 139 144 148 151 154 158 164 170 176 179 181 184 186 190 192 194 195 195 195 199 205 216 222 222 217 210 206 204 204 205 206 209 211 214 214 215 216 217 216 217 218 220 220 221 224 230 233 232 230 228 228
160 160 159 156 153 151 149 148 147 145 143 140 139 138 137 136 137 141 145 149 153 157 160 163 168 174 181 188 191 192 194 195 195 195 196 196 195 197 203 213 216 216 211 206 203 203 203 204 206 209 213 217 217 215 214 215 212 209 207 208 207 207 210 218 222 226 244 9 16
163 162 161 157 154 151 148 146 145 145 144 143 143 144 144 146 149 152 156 160 163 165 168 171 174 178 184 191 194 196 197 198 197 197 198 198 198 199 203 209 211 209 203 195 192 193 196 199 202 205 208 216 219 216 209 196 169 133 105 83 70 68 77 96 80 58 39 22 17
163 162 161 159 155 152 148 147 147 147 148 148 150 152 154 156 159 161 164 168 171 173 175 177 179 181 185 189 191 194 196 198 198 199 200 202 203 204 205 207 206 194 164 126 133 138 143 145 152 158 162 168 187 195 183 148 108 85 70 58 49 44 43 46 44 37 27 15 11
162 161 161 160 157 154 151 150 150 150 152 153 157 160 162 164 165 167 169 172 175 178 179 181 181 182 184 185 187 190 194 197 199 200 202 204 207 208 208 206 204 176 115 92 104 110 112 113 119 125 129 129 133 139 133 110 87 77 70 61 53 49 49 55 53 45 35 23 21
162 162 162 161 159 157 155 154 154 155 157 160 165 168 170 170 171 171 172 174 176 178 179 180 180 181 182 183 186 190 194 198 200 203 205 208 210 212 213 215 204 144 75 81 94 101 105 107 110 113 115 115 112 107 96 83 77 76 75 70 60 54 54 57 53 46 39 34 34
163 163 163 163 161 160 159 159 160 162 164 167 171 175 177 176 175 175 175 175 174 172 170 170 174 178 181 183 188 192 196 199 201 203 205 209 212 211 219 297 33 54 58 61 83 91 94 94 95 97 98 97 89 84 80 80 78 77 75 71 63 57 53 53 51 46 41 40 38
165 165 165 165 163 163 163 165 166 169 171 173 177 180 182 181 180 180 179 177 172 163 155 150 161 171 179 184 189 193 197 206 227 252 278 307 36 69 69 60 47 42 45 51 73 82 87 91 92 91 88 84 82 80 79 83 83 81 76 69 63 59 57 55 52 48 44 41 40
166 167 168 168 167 167 168 171 173 175 177 179 182 185 186 186 185 185 185 183 173 156 132 110 103 97 86 72 73 75 71 59 45 37 35 41 55 62 65 65 59 39 34 45 64 80 91 98 96 92 88 84 84 83 83 83 82 81 78 74 68 63 60 58 54 48 43 39 39
166 167 169 171 171 172 174 176 178 180 182 184 187 189 190 190 189 189 188 184 172 143 97 68 59 56 54 51 50 51 53 55 54 53 53 58 67 69 67 57 49 36 32 38 60 83 98 104 100 96 92 88 87 85 84 83 82 81 80 79 72 65 59 55 53 48 42 37 38
167 168 169 172 174 176 178 180 183 185 187 189 191 192 193 193 192 190 187 180 163 121 83 65 60 60 61 62 60 59 60 62 61 58 57 58 63 65 62 52 44 34 28 27 54 91 107 108 104 100 96 91 90 88 87 87 85 83 80 77 71 64 58 53 51 48 44 40 40
170 168 168 171 175 178 180 182 185 188 190 193 193 193 193 193 193 191 186 176 155 110 83 70 68 67 68 69 68 65 62 61 63 62 60 57 60 61 59 51 40 31 23 19 45 97 115 111 105 101 98 95 95 95 95 94 90 84 77 71 69 67 64 61 56 52 49 47 46
174 170 168 168 173 177 180 183 186 189 191 193 193 193 192 191 192 190 186 179 155 109 88 77 77 77 78 79 78 72 65 59 58 58 57 55 54 55 54 50 39 30 22 23 45 84 111 106 102 102 103 104 104 104 102 99 93 88 83 78 74 71 68 66 61 57 54 52 52
179 175 171 169 170 173 177 181 185 188 190 191 190 190 189 188 188 186 175 147 105 92 90 89 88 87 87 86 81 73 65 57 53 52 51 51 50 50 50 50 41 32 27 30 47 63 77 79 94 102 106 108 109 108 105 101 96 93 92 90 85 78 72 67 64 61 58 56 57
183 181 178 175 172 171 173 176 181 184 186 187 187 186 185 183 174 145 101 82 85 89 92 95 93 91 88 84 78 71 64 58 53 51 51 51 51 50 49 49 43 36 32 33 44 54 64 70 87 98 104 108 110 109 107 103 101 99 97 94 91 86 79 73 69 66 62 59 58
185 185 184 183 179 174 170 168 172 177 181 185 184 178 163 132 98 85 85 88 93 96 97 95 92 88 82 77 74 71 69 64 59 55 54 53 52 50 48 47 44 40 37 36 41 48 57 64 74 86 96 104 107 107 106 105 104 102 100 98 95 92 88 81 75 69 65 61 59